DW4098 Weather Reports


Display with metric or nautical units.
time (UTC)temp
F
wind
direction
speed
MPH
gust
MPH
rain 1hr
in
rain 24hr
in
rain mn
in
humidity
%
barometer
mb
20260504191115 64 301 1.0 3.0 0.00 0.43 0.32 94 1018.1
20260504190116 64 311 0.0 1.0 0.00 0.43 0.32 94 1018.1
20260504185115 64 327 0.0 2.0 0.00 0.43 0.32 94 1018.0
20260504184115 64 338 1.0 4.0 0.00 0.43 0.32 94 1017.9
20260504183115 32 315 26.0 24.0 0.00 0.29 0.25 1 1021.4
20260504182116 63 336 0.0 3.0 0.00 0.43 0.32 94 1017.9
20260504181115 32 315 26.0 24.0 0.00 0.29 0.25 1 1021.4
20260504180136 63 142 1.0 2.0 0.00 0.43 0.32 94 1017.9
20260504175115 32 315 26.0 24.0 0.00 0.29 0.25 1 1021.4
20260504174114 32 315 26.0 24.0 0.00 0.29 0.25 1 1021.4
20260504173115 64 297 1.0 3.0 0.00 0.43 0.32 93 1017.5
20260504172135 64 292 1.0 5.0 0.00 0.43 0.32 94 1017.6
20260504172114 32 315 26.0 24.0 0.00 0.29 0.25 1 1021.4
20260504171115 63 0 0.0 0.0 0.00 0.43 0.32 93 1017.5
20260504170137 63 310 0.0 2.0 0.00 0.43 0.32 93 1017.2
20260504160115 64 327 2.0 6.0 0.27 0.43 0.32 93 1017.9
20260504151115 32 315 26.0 24.0 0.08 0.12 0.08 1 1021.4
20260504150115 64 312 5.0 9.0 0.05 0.16 0.05 94 1018.1
20260504141115 64 173 0.0 2.0 0.00 0.11 0.00 94 1017.4
20260504140137 32 315 26.0 24.0 0.00 0.04 0.00 1 1021.4
20260504130115 64 80 0.0 0.0 0.00 0.11 0.11 94 1017.5
20260504120114 32 315 26.0 24.0 0.00 0.04 0.04 1 1021.4
20260504110115 64 0 0.0 0.0 0.00 0.11 0.11 93 1018.1
20260504100115 32 315 26.0 24.0 0.04 0.04 0.04 1 1021.4
20260504090114 32 315 26.0 24.0 0.00 0.00 0.00 1 1021.4
20260504081134 32 315 26.0 24.0 0.00 0.00 0.00 1 1021.4
20260504080114 65 325 2.0 5.0 0.01 0.05 0.05 88 1017.4
20260504070113 32 315 26.0 24.0 0.00 0.00 0.00 1 1020.4
20260504060114 32 315 26.0 24.0 0.00 0.00 0.00 1 1020.4
20260504050135 32 315 26.0 24.0 0.00 0.00 0.00 1 1020.4
20260504045113 70 253 0.0 5.0 0.00 0.01 0.01 76 1016.6
20260504044113 32 315 26.0 24.0 0.00 0.00 0.00 1 1020.4
20260504043134 32 315 26.0 24.0 0.00 0.00 0.00 1 1020.4
20260504042113 32 315 26.0 24.0 0.00 0.00 0.00 1 1020.4
20260504041113 32 315 26.0 24.0 0.00 0.00 0.00 1 1020.4
20260504040114 32 315 26.0 24.0 0.00 0.00 0.00 1 1020.4
20260504035113 32 315 26.0 24.0 0.00 0.00 0.00 1 1020.4
20260504034113 32 315 26.0 24.0 0.00 0.00 0.00 1 1021.4
20260504033113 69 312 2.0 4.0 0.00 0.00 0.00 74 1016.9
20260504032113 70 291 2.0 8.0 0.00 0.00 0.00 75 1017.0
20260504031113 32 315 26.0 24.0 0.00 0.00 0.00 1 1021.4
20260504030114 32 315 26.0 24.0 0.00 0.00 0.00 1 1021.4
20260504025113 32 315 26.0 24.0 0.00 0.00 0.00 1 1021.4
20260504024113 32 315 26.0 24.0 0.00 0.00 0.00 1 1021.4
20260504023113 74 286 9.0 16.0 0.00 0.00 0.00 56 1017.6
20260504022113 75 281 6.0 13.0 0.00 0.00 0.00 54 1017.7
20260504021113 32 315 26.0 24.0 0.00 0.00 0.00 1 1022.4
20260504020114 76 287 9.0 16.0 0.00 0.00 0.00 52 1018.1
20260504015112 78 270 7.0 14.0 0.00 0.00 0.00 49 1018.1
20260504014134 79 276 6.0 12.0 0.00 0.00 0.00 48 1018.1
20260504013134 78 259 4.0 10.0 0.00 0.00 0.00 49 1018.2
20260504012113 32 315 26.0 24.0 0.00 0.00 0.00 1 1022.4
20260504011134 32 315 26.0 24.0 0.00 0.00 0.00 1 1022.4
20260504010113 32 315 26.0 24.0 0.00 0.00 0.00 1 1023.4
20260504005134 78 317 5.0 11.0 0.00 0.00 0.00 49 1018.4
20260504004113 32 315 26.0 24.0 0.00 0.00 0.00 1 1022.4
20260504003113 32 315 26.0 24.0 0.00 0.00 0.00 1 1022.4
20260504002113 32 315 26.0 24.0 0.00 0.00 0.00 1 1022.4
20260504001112 75 173 2.0 5.0 0.00 0.00 0.00 62 1018.5
20260504000113 74 155 3.0 5.0 0.00 0.00 0.00 63 1018.5
20260503235113 32 315 26.0 24.0 0.00 0.00 0.00 1 1022.4
20260503234112 32 315 26.0 24.0 0.00 0.00 0.00 1 1022.4
20260503233112 32 315 26.0 24.0 0.00 0.00 0.00 1 1022.4
20260503232112 68 66 0.0 2.0 0.00 0.00 0.00 73 1018.7
20260503231134 67 132 0.0 1.0 0.00 0.00 0.00 74 1018.8
20260503230113 66 0 0.0 0.0 0.00 0.00 0.00 78 1018.8
20260503225113 64 0 0.0 0.0 0.00 0.00 0.00 82 1018.8
20260503224112 63 0 0.0 0.0 0.00 0.00 0.00 83 1018.9
20260503223112 32 315 26.0 24.0 0.00 0.00 0.00 1 1022.4
20260503222112 58 0 0.0 0.0 0.00 0.00 0.00 88 1018.8
20260503221113 57 0 0.0 0.0 0.00 0.00 0.00 89 1018.8
20260503220134 57 0 0.0 0.0 0.00 0.00 0.00 89 1018.8
20260503215112 56 0 0.0 0.0 0.00 0.00 0.00 89 1018.8
20260503214112 32 315 26.0 24.0 0.00 0.00 0.00 1 1022.4
20260503213112 56 0 0.0 0.0 0.00 0.00 0.00 90 1018.6
20260503212134 32 315 26.0 24.0 0.00 0.00 0.00 1 1021.4
20260503211113 55 0 0.0 0.0 0.00 0.00 0.00 90 1018.5
20260503210113 55 0 0.0 0.0 0.00 0.00 0.00 90 1018.3
20260503205113 55 0 0.0 0.0 0.00 0.00 0.00 91 1018.2
20260503204112 54 0 0.0 0.0 0.00 0.00 0.00 91 1018.1
20260503203113 54 0 0.0 0.0 0.00 0.00 0.00 90 1018.1
20260503202113 54 0 0.0 0.0 0.00 0.00 0.00 90 1018.0
20260503201112 54 0 0.0 0.0 0.00 0.00 0.00 90 1018.0
20260503200113 54 0 0.0 0.0 0.00 0.00 0.00 90 1017.8
20260503195113 32 315 26.0 24.0 0.00 0.00 0.00 1 1021.4
20260503194112 55 0 0.0 0.0 0.00 0.00 0.00 90 1017.7
20260503193112 32 315 26.0 24.0 0.00 0.00 0.00 1 1020.4
20260503192112 32 315 26.0 24.0 0.00 0.00 0.00 1 1020.4